Find Starlink 31646

NORAD ID: 59265 Int'l Des: 2024-050 Owner: SPXS Country: US Constellation: starlink operational
LEOCIRCULAR

当前视图

正在加载3D地球...

About Starlink 31646

Starlink 31646 (NORAD 59265) is a starlink constellation satellite (v2 mini) launched Mar 19, 2024 by SPXS of US. It operates in LEO, CIRCULAR orbit with a mass of 730.00 kg.

关于 Starlink 31646

正在加载描述...

即将过境

Passes for default location (London). Set your location on the main map for personalized predictions.

高度历史

Loading altitude history...

两行轨道根数

1 59265U 24050M 26177.98719380 -.00000504 00000-0 -37994-5 0 9994
2 59265 53.1604 33.2355 0000741 112.3061 247.8020 15.34385255127289
Epoch: Jun 26, 2026 • Age: 16 hours

当前状态

高度 462.8 km
速度 7.64 km/s
星下点 19.66°N, 38.86°E
发射日期 Mar 19, 2024
运行时间 2.2 years
类型 internet

技术详情

分类 Payload
质量 730.00 kg
干质量 700.00 kg
总质量 730.00 kg
长度 0.30 m
直径 4.10 m
跨度 29.00 m
形状 Box + pan
制造商 SPXS
平台类型 Starlink V2M
阶段状态 In Orbit
所有者/国家 SPXS/US

Most Searched